Temperature
21 20 20 20 20 20 20 19 19 19 19 19 19 19 18 18 18 18 18 18 18 18 18 18 18 18 18 18 18 18 18 18 18 18 18 18 18 17 17 17 17 17 17
21 20 20 20 20 20 19 19 19 19 19 19 19 18 18 18 18 18 18 18 18 18 18 18 18 18 18 18 18 18 18 18 17 17 17 18 17 17 17 17 17 17 17
20 20 20 19 19 19 19 19 19 19 19 18 18 18 18 18 18 18 17 17 17 17 17 17 17 17 17 17 17 17 17 17 17 17 17 17 17 17 17 17 16 16 16
20 20 20 19 19 19 19 19 19 19 19 18 18 18 18 18 18 17 17 17 17 17 17 17 17 17 17 17 17 17 17 17 17 17 17 17 17 17 17 16 16 16 16
20 20 19 19 19 19 18 18 18 18 18 18 18 18 18 17 17 17 17 17 17 17 17 17 17 17 17 17 17 17 17 17 17 16 16 17 17 17 16 16 16 16 16
20 20 19 19 19 18 18 18 18 18 18 17 17 17 17 17 17 17 17 17 17 17 17 17 17 17 17 17 17 17 17 16 16 16 16 16 16 16 16 16 15 15 15
20 19 19 19 18 18 18 18 18 17 18 17 17 17 17 17 17 17 17 17 17 17 17 17 16 16 16 16 16 16 16 16 16 16 16 16 16 16 16 16 15 15 15
19 19 19 18 18 18 18 17 17 17 17 17 17 17 17 17 17 17 17 17 17 16 16 16 16 16 16 16 16 16 16 16 16 16 15 15 15 15 15 15 15 15 15
19 18 18 18 18 17 17 17 17 17 17 17 17 16 16 17 17 17 16 16 16 16 16 16 16 16 16 16 15 15 15 15 15 15 15 15 15 15 15 15 15 15 14
18 18 18 17 17 17 17 17 17 17 17 16 16 16 16 16 16 16 16 16 16 15 16 15 15 16 15 15 15 15 15 15 15 15 15 15 15 15 15 15 14 14 14
17 17 17 17 17 17 17 17 16 16 16 16 16 16 16 16 16 16 16 16 15 15 15 15 15 15 15 15 15 15 15 14 14 14 14 14 14 14 14 14 14 14 14
17 17 17 17 16 16 16 16 16 16 16 16 16 16 16 16 16 16 16 16 15 15 15 15 15 15 15 15 14 14 14 14 14 14 13 14 14 14 14 14 14 14 14
16 16 16 16 16 16 16 16 16 16 16 16 16 16 16 16 16 16 15 15 15 15 15 14 14 14 14 14 14 14 14 13 13 13 13 13 13 13 14 14 14 14 14
16 16 16 16 16 16 16 16 16 15 15 15 15 15 15 15 15 15 15 15 14 14 14 14 14 14 14 14 13 13 13 13 13 13 13 13 13 13 13 13 13 13 13
15 15 15 15 15 16 16 15 15 15 15 15 15 15 15 15 15 15 14 14 14 14 14 14 13 13 13 13 13 13 13 13 13 13 12 12 12 13 13 13 13 13 13
15 15 15 15 15 15 15 15 15 15 15 15 15 15 15 14 14 14 14 14 14 13 13 13 13 13 13 13 12 12 12 12 12 12 12 12 12 12 12 12 12 12 12
15 15 15 15 15 15 15 15 15 14 14 14 14 14 14 14 14 14 13 13 13 13 13 12 12 12 12 12 12 12 12 12 12 12 11 11 11 11 11 11 11 11 11
14 14 15 15 15 15 15 14 14 14 14 14 14 14 14 14 13 13 13 13 12 12 12 12 12 12 12 12 11 11 11 11 11 11 11 11 11 11 11 11 11 11 11
14 14 14 14 14 14 14 14 14 14 14 13 13 13 13 13 13 13 12 12 12 12 12 12 11 11 11 11 11 11 11 11 11 10 10 10 10 10 10 10 10 10 10
14 14 14 14 14 14 14 14 13 13 13 13 13 13 13 13 12 12 12 12 12 11 11 11 11 11 11 10 10 10 10 10 10 10 10 10 10 10 10 10 10 10 10
13 13 13 13 13 13 13 13 13 13 13 13 13 12 12 12 12 12 12 12 11 11 11 10 10 10 10 10 10 10 10 10 10 10 10 9 9 9 9 9 9 9 9
13 13 13 13 13 13 13 13 13 12 12 12 12 12 12 12 11 11 11 11 11 10 10 10 10 10 10 10 10 9 9 9 9 9 9 9 9 9 9 9 9 9 9
13 13 13 13 13 13 12 12 12 12 12 11 11 11 11 11 11 11 11 10 10 10 10 10 10 9 9 9 9 9 9 9 9 9 9 9 9 9 8 8 8 8 8
12 12 12 12 12 12 12 12 12 11 11 11 11 11 11 10 10 10 10 10 9 9 9 9 9 9 9 9 9 9 9 8 8 8 8 8 8 8 8 8 8 8 8
12 12 12 12 12 12 11 11 11 11 11 11 10 10 10 10 10 9 9 9 9 9 9 9 9 9 9 8 8 8 8 8 8 8 8 8 8 8 8 8 8 8 8
12 12 12 12 11 11 11 11 11 10 10 10 10 10 9 9 9 9 9 9 8 8 8 8 8 8 8 8 8 8 8 8 8 8 8 7 7 7 7 7 8 7 7
Wind_Speed
11 10 9 9 9 8 7 6 5 4 4 4 4 5 5 6 5 5 6 4 5 5 6 5 5 5 4 4 4 4 4 3 4 4 2 1 2 2 3 4 5 6 7
9 8 8 7 7 8 7 6 5 5 5 4 5 5 6 6 5 5 6 5 5 4 4 5 5 5 5 5 4 5 4 4 4 4 3 3 3 4 4 4 4 6 6
10 9 8 8 7 7 6 5 5 5 5 5 5 6 5 5 5 5 5 5 5 4 4 4 5 5 5 4 5 5 4 4 3 4 4 3 3 3 4 4 5 3 5
10 9 8 8 7 6 5 5 6 6 6 6 5 5 5 5 5 5 5 5 5 4 4 4 4 5 5 5 6 5 4 4 4 4 4 4 3 3 3 3 3 3 4
8 8 8 7 6 5 5 5 5 6 7 6 5 6 5 5 5 4 4 6 5 5 5 5 5 5 5 4 5 4 4 4 4 4 4 4 4 2 3 3 4 3 4
6 6 6 6 6 6 5 5 5 5 6 6 6 6 6 6 5 5 4 4 4 5 5 5 5 6 6 6 6 6 5 5 5 5 5 4 4 3 3 4 4 4 4
6 6 6 6 6 6 6 5 5 6 6 6 7 6 6 5 5 5 5 5 5 5 5 5 7 6 5 4 5 6 7 8 8 6 6 6 5 3 3 4 5 5 6
4 5 5 5 5 5 4 5 6 6 6 6 6 6 6 6 6 6 6 6 6 6 6 6 5 3 4 3 5 5 6 6 7 7 5 6 5 4 5 6 7 6 5
4 5 5 5 5 5 5 5 5 5 5 6 6 6 6 6 7 8 7 5 5 5 6 5 4 4 4 4 5 6 6 5 5 6 7 7 8 9 7 4 5 5 5
2 4 4 4 5 6 6 5 5 5 5 6 6 6 6 6 8 10 9 6 5 5 4 4 4 3 3 4 4 5 6 5 5 5 6 8 8 8 9 7 6 6 5
1 2 3 3 4 5 5 4 4 5 5 5 5 5 6 7 8 10 10 6 5 5 4 4 3 3 3 4 5 5 7 6 6 6 6 6 5 5 6 7 7 6 6
1 1 1 3 4 4 3 4 5 5 5 5 5 5 4 4 6 9 10 9 6 5 4 3 2 3 4 6 6 8 9 7 6 6 5 5 5 4 4 5 7 7 7
1 1 2 3 2 3 5 5 5 5 5 4 4 4 3 3 3 6 7 6 6 4 4 3 3 5 5 5 7 8 7 6 5 5 5 4 4 4 4 4 5 7 8
2 2 3 3 3 3 4 4 4 3 4 3 3 3 2 2 2 2 2 3 4 3 3 3 4 6 7 6 5 4 5 5 4 5 5 4 4 3 4 4 5 5 5
3 3 4 4 3 3 2 2 2 1 2 2 2 2 2 2 2 1 2 3 3 3 2 3 4 3 3 4 3 3 3 3 4 4 4 4 4 3 3 3 4 4 5
3 4 4 3 2 2 2 1 1 1 1 2 2 3 2 2 4 3 2 4 5 5 3 4 4 4 4 4 3 3 3 3 3 3 3 4 4 4 4 3 3 4 5
4 4 3 3 2 2 1 1 1 0 0 1 2 3 4 4 5 4 3 3 4 4 4 5 4 4 4 4 3 3 3 3 2 3 3 4 4 4 4 4 3 4 4
4 4 3 3 2 2 2 2 2 2 1 1 3 5 6 6 6 6 4 2 3 4 4 4 4 4 3 3 3 3 3 3 3 3 4 4 4 4 4 4 4 4 4
4 3 3 3 2 2 2 2 2 2 2 2 1 2 5 6 6 6 5 4 4 4 3 4 4 4 3 2 2 2 3 3 3 3 3 3 3 4 4 4 4 5 5
3 4 4 3 2 2 2 2 2 2 2 2 2 2 2 2 3 3 3 3 3 3 2 3 3 3 2 2 3 3 3 3 3 3 3 3 4 4 4 4 4 3 3
4 3 4 4 3 2 2 2 2 2 2 2 2 1 2 3 3 2 3 3 2 2 2 3 3 3 3 2 2 2 3 3 2 3 3 3 3 3 3 3 4 3 3
4 3 3 2 1 1 1 2 1 2 2 2 1 1 1 2 2 2 2 1 2 2 2 2 2 2 1 2 2 2 2 3 3 3 3 3 3 3 3 3 3 3 3
4 4 3 2 1 1 1 2 2 2 2 2 2 1 1 2 2 1 1 1 1 2 1 2 2 1 1 0 0 0 1 2 2 3 4 3 3 3 3 3 3 3 3
4 4 3 2 1 2 1 1 2 1 1 2 2 2 1 1 1 1 1 1 2 2 1 1 1 1 1 1 1 1 1 2 3 3 4 4 4 3 3 3 3 3 3
3 3 2 2 2 1 1 1 1 1 2 2 1 1 1 1 1 2 2 1 2 2 1 1 0 0 1 2 2 1 2 4 3 3 3 3 4 3 3 4 4 4 3
2 2 1 1 1 1 1 1 1 1 1 2 1 1 1 1 2 2 1 1 1 1 1 0 0 1 2 2 2 2 2 2 3 4 4 4 4 4 4 3 4 4 4
Wind_Direction
193 194 197 195 202 207 209 209 207 208 208 201 202 201 207 216 216 220 235 234 241 245 247 241 243 245 252 260 257 252 245 241 251 261 258 245 218 208 191 204 212 205 206
186 187 194 191 195 203 206 204 199 202 212 209 209 212 217 219 219 221 230 233 238 243 251 254 252 249 245 250 258 260 252 241 241 252 256 251 236 210 200 218 225 221 207
183 187 192 195 196 201 203 196 198 207 213 216 216 218 221 224 224 228 228 234 238 238 246 257 255 250 251 249 248 253 261 263 243 246 257 251 242 219 209 230 235 228 232
181 188 191 196 196 199 199 195 199 205 214 219 221 222 220 222 224 223 225 229 237 242 245 249 258 255 252 256 256 254 262 271 269 258 254 251 242 229 214 231 248 234 241
175 186 188 190 190 193 198 202 206 212 222 223 223 227 222 222 223 215 235 229 226 238 240 238 240 238 245 255 259 260 260 261 264 262 256 256 247 235 234 237 252 254 247
177 186 184 184 187 191 200 208 207 214 226 228 226 229 231 229 203 200 224 243 236 236 241 241 235 233 233 235 235 240 247 251 256 260 259 258 250 247 249 256 254 257 258
176 180 182 182 185 192 206 209 215 217 221 226 227 225 223 222 216 208 221 234 244 244 243 247 253 243 223 234 235 238 244 245 242 250 262 266 263 256 257 262 262 256 255
171 178 180 178 186 191 201 212 218 220 222 225 226 226 219 220 201 202 221 234 247 247 246 243 241 240 246 252 260 257 254 250 244 239 245 258 264 261 252 251 259 259 258
182 183 178 179 190 198 204 212 221 227 229 226 223 223 218 212 201 199 208 231 239 243 248 251 238 222 230 240 256 263 264 258 258 257 247 249 254 257 255 263 261 260 264
193 185 178 184 198 211 215 219 228 228 229 229 224 222 215 218 205 198 202 228 236 236 241 244 230 215 225 226 247 260 263 267 273 267 257 254 249 246 239 229 242 252 259
217 195 193 203 212 215 217 220 226 233 233 230 228 225 220 219 204 198 201 220 241 248 247 242 223 192 208 227 240 248 251 262 267 265 259 249 245 242 237 228 230 238 247
202 221 228 225 236 230 213 224 230 232 235 233 229 231 228 213 202 200 203 212 232 251 252 239 217 208 233 247 247 247 251 258 258 259 259 257 256 252 244 236 233 233 235
205 227 254 263 253 237 229 233 231 224 231 235 230 230 222 207 187 175 194 213 230 241 259 253 245 237 245 258 250 248 243 244 249 256 258 258 260 261 261 253 244 234 237
235 248 255 252 245 250 236 228 234 233 232 239 250 255 255 211 183 178 199 223 238 244 260 274 260 250 254 258 263 252 239 241 248 257 265 266 264 256 253 257 258 253 250
262 259 258 249 240 229 244 251 231 250 237 235 272 270 264 255 234 196 209 224 235 238 245 255 255 254 245 247 252 259 261 260 262 270 281 289 287 279 270 263 258 260 254
265 264 258 250 236 222 202 219 32 233 186 195 230 243 261 231 203 193 203 218 221 213 223 243 245 241 243 247 249 250 255 263 272 276 278 284 289 288 286 286 280 277 275
273 271 263 263 248 235 229 219 224 350 169 241 230 229 221 220 223 220 219 229 237 214 227 239 244 244 240 241 244 251 253 258 269 272 274 279 284 286 284 280 279 280 278
277 266 248 240 230 241 242 243 238 227 221 263 256 228 220 219 225 225 215 200 246 227 229 236 244 249 246 249 253 256 262 258 260 268 272 277 279 279 277 275 273 277 280
274 264 245 252 245 232 236 246 257 248 239 227 236 240 225 224 228 226 207 224 244 246 243 244 247 250 250 253 262 264 262 264 267 276 279 283 284 282 280 280 276 276 273
269 263 249 247 255 247 239 245 260 263 256 246 237 225 209 218 223 214 206 231 244 261 267 263 262 262 258 252 256 262 261 263 264 268 277 287 288 285 284 283 279 277 272
272 259 230 232 240 246 255 261 269 276 269 259 263 256 202 220 232 224 213 214 231 249 263 263 254 253 252 247 253 269 276 278 284 281 278 278 285 286 284 283 287 282 274
272 264 255 246 243 236 264 278 284 287 282 275 259 201 220 263 261 237 239 247 246 251 266 271 270 262 258 257 249 249 267 282 290 288 282 277 271 268 269 273 282 285 277
264 265 261 257 231 208 235 263 270 266 281 292 279 237 220 261 272 286 287 306 310 300 298 288 289 295 331 359 47 118 282 287 293 301 294 282 281 277 271 272 272 276 273
258 260 258 258 238 233 261 278 273 259 277 295 297 288 286 286 286 312 319 318 312 314 324 317 296 304 65 69 80 67 27 342 324 307 297 285 274 269 270 269 264 258 265
255 253 253 250 258 259 268 272 289 296 301 300 300 300 308 324 315 302 300 300 294 299 316 336 338 6 95 93 89 67 23 12 347 321 293 278 271 265 264 266 264 259 257
249 256 261 258 264 287 269 263 282 282 281 280 277 273 268 262 262 268 296 307 302 303 304 354 54 106 117 130 120 102 66 8 339 321 290 271 265 265 269 269 275 268 267
Height
1507 1510 1513 1515 1517 1519 1520 1522 1524 1526 1527 1528 1529 1530 1531 1531 1532 1533 1534 1535 1535 1536 1536 1536 1537 1537 1538 1538 1538 1539 1539 1539 1538 1537 1537 1537 1537 1536 1536 1535 1534 1534 1533
1503 1506 1509 1511 1513 1515 1517 1518 1520 1522 1523 1525 1526 1527 1527 1528 1529 1529 1531 1532 1532 1532 1532 1533 1533 1534 1534 1534 1535 1535 1535 1535 1535 1534 1534 1534 1534 1533 1533 1532 1531 1531 1531
1500 1502 1505 1507 1509 1511 1513 1515 1516 1518 1520 1521 1522 1523 1524 1524 1525 1526 1526 1527 1528 1528 1529 1529 1529 1530 1530 1530 1531 1531 1531 1532 1532 1531 1530 1531 1530 1530 1529 1529 1528 1528 1527
1496 1499 1501 1503 1505 1507 1509 1511 1512 1514 1515 1517 1518 1519 1519 1520 1521 1522 1523 1524 1524 1525 1525 1526 1525 1526 1526 1526 1527 1527 1528 1528 1528 1528 1527 1527 1527 1526 1526 1525 1525 1524 1524
1492 1495 1498 1500 1502 1504 1505 1507 1508 1510 1512 1513 1514 1514 1515 1517 1517 1518 1519 1520 1520 1521 1521 1521 1521 1521 1521 1522 1523 1523 1523 1523 1523 1523 1523 1523 1522 1522 1522 1522 1521 1521 1520
1489 1491 1494 1496 1498 1500 1501 1502 1504 1506 1507 1509 1510 1511 1512 1513 1514 1514 1515 1515 1516 1516 1517 1517 1517 1517 1517 1517 1518 1518 1519 1519 1518 1519 1518 1518 1518 1518 1518 1518 1518 1517 1516
1486 1487 1490 1492 1494 1495 1497 1499 1499 1501 1503 1504 1505 1507 1507 1508 1510 1510 1510 1511 1511 1512 1512 1512 1513 1513 1513 1513 1513 1513 1513 1514 1514 1514 1514 1513 1513 1513 1513 1513 1513 1512 1511
1483 1485 1487 1489 1490 1492 1493 1494 1496 1497 1498 1499 1501 1502 1503 1504 1505 1505 1506 1506 1507 1507 1508 1508 1508 1508 1508 1508 1508 1508 1508 1508 1508 1508 1508 1508 1509 1508 1508 1509 1508 1508 1507
1481 1482 1484 1485 1486 1488 1489 1490 1491 1493 1494 1495 1497 1498 1498 1499 1500 1501 1502 1502 1502 1502 1503 1503 1503 1503 1503 1504 1504 1503 1503 1502 1503 1503 1503 1503 1503 1503 1503 1503 1503 1503 1502
1478 1479 1480 1481 1482 1484 1485 1486 1488 1489 1490 1491 1492 1493 1494 1494 1495 1496 1497 1497 1497 1497 1498 1498 1498 1499 1499 1499 1498 1498 1497 1497 1497 1497 1497 1497 1497 1497 1498 1498 1498 1498 1497
1476 1477 1477 1478 1479 1480 1481 1482 1483 1484 1485 1487 1487 1488 1489 1490 1491 1491 1492 1493 1493 1493 1493 1494 1494 1494 1494 1493 1493 1492 1491 1492 1492 1492 1491 1491 1491 1491 1492 1492 1492 1493 1492
1473 1474 1474 1475 1476 1477 1478 1478 1479 1480 1481 1482 1483 1484 1485 1485 1486 1487 1487 1488 1488 1489 1489 1489 1490 1489 1489 1488 1487 1486 1486 1486 1486 1487 1486 1486 1486 1486 1486 1486 1487 1487 1487
1470 1471 1471 1472 1472 1472 1473 1474 1476 1477 1478 1479 1479 1479 1480 1481 1482 1482 1482 1483 1483 1484 1484 1484 1485 1484 1484 1483 1482 1481 1481 1481 1481 1481 1482 1481 1481 1481 1482 1482 1482 1481 1481
1468 1468 1468 1469 1469 1469 1470 1471 1472 1473 1474 1475 1476 1476 1476 1477 1477 1477 1477 1478 1479 1479 1479 1480 1480 1480 1479 1478 1478 1477 1476 1476 1476 1477 1477 1477 1477 1477 1477 1476 1476 1476 1475
1466 1465 1465 1466 1466 1466 1466 1467 1469 1469 1471 1471 1472 1472 1472 1472 1472 1473 1473 1473 1473 1474 1474 1474 1474 1474 1474 1474 1473 1473 1473 1472 1472 1473 1473 1472 1472 1472 1472 1472 1471 1471 1470
1462 1462 1462 1463 1463 1464 1464 1464 1465 1466 1467 1468 1468 1468 1468 1468 1468 1468 1469 1469 1469 1470 1470 1469 1470 1470 1470 1470 1469 1469 1469 1468 1468 1468 1468 1468 1468 1467 1467 1467 1466 1466 1465
1460 1459 1459 1460 1460 1461 1461 1461 1461 1462 1463 1463 1463 1463 1463 1463 1464 1464 1464 1465 1465 1465 1465 1465 1465 1465 1466 1465 1465 1465 1465 1465 1464 1464 1464 1463 1463 1462 1462 1461 1461 1461 1460
1457 1456 1457 1457 1457 1457 1458 1459 1459 1458 1458 1458 1459 1459 1459 1459 1460 1460 1460 1461 1461 1461 1461 1461 1461 1461 1461 1461 1461 1461 1461 1461 1460 1460 1459 1459 1458 1457 1457 1457 1457 1456 1455
1454 1454 1454 1454 1454 1455 1455 1456 1456 1456 1455 1455 1455 1455 1455 1456 1456 1456 1456 1456 1456 1456 1456 1457 1457 1457 1457 1457 1457 1457 1457 1456 1456 1455 1455 1454 1453 1453 1452 1452 1452 1452 1451
1451 1451 1450 1450 1451 1451 1452 1453 1453 1452 1452 1452 1452 1451 1452 1452 1452 1452 1451 1452 1452 1452 1452 1452 1452 1452 1452 1452 1452 1452 1452 1452 1451 1450 1450 1449 1449 1448 1448 1448 1448 1447 1447
1448 1448 1448 1447 1448 1448 1449 1449 1449 1449 1448 1448 1448 1448 1449 1449 1448 1448 1448 1448 1447 1447 1447 1447 1447 1446 1447 1447 1447 1447 1447 1446 1446 1446 1446 1445 1445 1444 1444 1444 1444 1444 1443
1446 1446 1446 1446 1445 1446 1446 1447 1446 1446 1445 1445 1444 1445 1445 1445 1445 1444 1444 1443 1443 1443 1442 1442 1441 1441 1441 1441 1442 1442 1442 1441 1441 1442 1441 1441 1441 1441 1441 1440 1440 1440 1440
1444 1444 1444 1444 1444 1444 1444 1444 1443 1443 1442 1442 1442 1441 1441 1441 1441 1440 1440 1439 1439 1438 1437 1437 1436 1435 1435 1436 1436 1436 1436 1435 1437 1437 1437 1437 1437 1437 1437 1437 1437 1437 1437
1442 1442 1441 1442 1441 1442 1441 1441 1441 1440 1440 1439 1438 1438 1438 1438 1437 1437 1436 1435 1435 1434 1433 1432 1431 1431 1431 1431 1432 1432 1432 1433 1433 1433 1433 1433 1433 1433 1434 1434 1434 1434 1435
1439 1439 1439 1439 1439 1439 1439 1438 1438 1438 1437 1436 1436 1436 1435 1435 1434 1434 1433 1432 1431 1430 1429 1428 1428 1428 1427 1428 1428 1428 1428 1429 1429 1429 1429 1429 1430 1430 1430 1431 1431 1431 1431
1436 1436 1436 1436 1436 1436 1436 1436 1436 1435 1435 1434 1434 1433 1433 1433 1432 1431 1431 1430 1429 1427 1426 1425 1425 1425 1424 1424 1424 1425 1425 1425 1425 1425 1425 1425 1426 1426 1426 1426 1427 1428 1428